カタログに戻る

SL-6 R/B(2)

運用中HEO
NORAD 11076·ROCKET BODY·🇷🇺 Russia

打ち上げ Sep 6, 1978 から Plesetsk Cosmodrome

Loading…

次のパス (今後24時間)

TLE

最新Source: Space-Track

元期: Sep 13, 2026, 20:13 UTC

1 11076U 78083D   26256.84277032 -.00000748  00000-0  00000-0 0  9995
2 11076  65.8425  74.9131 6706486  20.6738 356.9320  1.99118442241683

AllMySatでSL-6 R/B(2)をリアルタイム追跡

Download on the App Store